[[[{"header":{"parameterUnit":"kt","parameterCategory":2,"dx":1,"dy":1,"la1":30.253999710083008,"la2":30.299108505249023,"lo1":-89.0895004272461,"lo2":-89.04439544677734,"nx":28,"ny":28,"refTime":"2022-10-16T21:00:00:Z","depth":"0","parameterNumber":2,"parameterNumberName":"U-component_of_CURRENTS"},"data":[-0.3408,-0.3261,-0.3313,-0.3206,-0.3287,-0.3211,-0.3238,-0.3273,-0.3311,-0.3193,-0.3069,-0.3133,-0.3003,-0.282,-0.253,-0.2573,-0.2375,-0.245,-0.2419,-0.2662,-0.272,-0.2775,-0.269,-0.221,-0.2208,-0.1823,-0.1817,-0.1813,-0.3683,-0.3689,-0.3741,-0.3799,-0.3826,-0.4055,-0.4227,-0.4151,-0.421,-0.4358,-0.4441,-0.4243,-0.4121,-0.3991,-0.3752,-0.3543,-0.3578,-0.3373,-0.3196,-0.3161,-0.3772,-0.3722,-0.3453,-0.3454,-0.3454,-0.3454,-0.3455,-0.3455,-0.4121,-0.41,-0.4137,-0.4183,-0.4333,-0.4471,-0.4463,-0.4669,-0.4799,-0.4794,-0.5077,-0.4958,-0.4891,-0.4785,-0.4727,-0.4377,-0.4496,-0.4149,-0.3999,-0.402,-0.3888,-0.4663,-0.4546,-0.4548,-0.455,-0.4551,-0.4553,0,-0.4387,-0.4459,-0.4469,-0.457,-0.4645,-0.479,-0.4901,-0.497,-0.5165,-0.5249,-0.5316,-0.5353,-0.5325,-0.5148,-0.5041,-0.4954,-0.455,-0.4747,-0.4471,-0.4004,-0.399,-0.3889,-0.4651,-0.4523,-0.4525,-0.4527,-0.4528,-0.4529,-0.4645,-0.4643,-0.4818,-0.484,-0.4891,-0.499,-0.5052,-0.5244,-0.528,-0.5405,-0.5372,-0.5377,-0.5355,-0.5238,-0.5136,-0.5037,-0.4793,-0.4791,-0.4769,-0.4533,-0.4361,-0.4351,-0.4276,-0.4552,-0.4549,-0.4546,-0.4544,0,-0.4755,-0.4873,-0.4908,-0.5049,-0.51,-0.512,-0.5286,-0.5312,-0.5398,-0.5411,-0.5407,-0.5408,-0.534,-0.526,-0.5137,-0.5078,-0.4832,-0.4963,-0.4837,-0.4807,-0.4576,-0.4435,-0.4219,-0.4112,-0.4948,-0.4948,-0.4949,0,-0.497,-0.4969,-0.5139,-0.5126,-0.5175,-0.5262,-0.5305,-0.5344,-0.5407,-0.5417,-0.5411,-0.5391,-0.5293,-0.5228,-0.5159,-0.5071,-0.5036,-0.502,-0.5002,-0.486,-0.4853,-0.4594,-0.4445,-0.4948,-0.4949,-0.4949,-0.4949,0,-0.5062,-0.5169,-0.5188,-0.5207,-0.5306,-0.5321,-0.5371,-0.5402,-0.5433,-0.5417,-0.5424,-0.5345,-0.5315,-0.5225,-0.5165,-0.5163,-0.5053,-0.504,-0.5018,-0.5021,-0.4858,-0.485,-0.4508,-0.4949,-0.495,-0.495,-0.495,0,-0.5195,-0.5246,-0.5275,-0.5352,-0.5364,-0.538,-0.5397,-0.5425,-0.5427,-0.542,-0.5375,-0.5353,-0.53,-0.5282,-0.5179,-0.5197,-0.5149,-0.5115,-0.5111,-0.5135,-0.5129,-0.494,-0.4874,-0.4599,-0.5088,-0.5089,-0.509,0,-0.5228,-0.5288,-0.5348,-0.5363,-0.5377,-0.5409,-0.5429,-0.5427,-0.5421,-0.5412,-0.5361,-0.5343,-0.532,-0.5313,-0.5259,-0.5229,-0.5181,-0.5221,-0.5115,-0.5113,-0.5138,-0.5112,-0.4945,-0.4896,-0.5102,-0.5101,-0.51,0,-0.5239,-0.5355,-0.5347,-0.5361,-0.5395,-0.5406,-0.5419,-0.5418,-0.5424,-0.539,-0.5373,-0.5344,-0.5324,-0.5311,-0.5293,-0.5249,-0.5206,-0.5232,-0.5228,-0.5215,-0.5095,-0.5127,-0.5122,-0.5153,-0.5151,-0.515,-0.511,0,-0.5292,-0.5325,-0.5347,-0.538,-0.5396,-0.5411,-0.5422,-0.5427,-0.5415,-0.54,-0.537,-0.5351,-0.5325,-0.5317,-0.5318,-0.5273,-0.5268,-0.5245,-0.5228,-0.5215,-0.5203,-0.5195,-0.5287,-0.5287,-0.5287,-0.5287,0,0,-0.5251,-0.5304,-0.5344,-0.5373,-0.538,-0.5391,-0.5404,-0.5405,-0.5407,-0.5394,-0.5386,-0.535,-0.5344,-0.531,-0.5306,-0.5306,-0.5277,-0.5291,-0.5232,-0.5226,-0.5221,-0.5208,-0.5201,-0.5287,-0.5287,-0.5287,-0.5287,0,-0.5265,-0.53,-0.5334,-0.5353,-0.5379,-0.5383,-0.5395,-0.541,-0.5394,-0.5396,-0.5369,-0.5355,-0.5342,-0.5313,-0.5301,-0.5307,-0.5271,-0.5296,-0.5292,-0.5234,-0.5228,-0.5223,-0.5209,-0.5203,-0.5287,-0.5287,-0.5287,0,-0.5243,-0.5278,-0.5301,-0.535,-0.5357,-0.5376,-0.5372,-0.5392,-0.5388,-0.537,-0.5354,-0.5342,-0.5323,-0.5304,-0.5299,-0.5292,-0.5262,-0.5284,-0.5284,-0.5289,-0.5228,-0.5222,-0.5216,-0.5282,-0.5282,-0.5282,0,0,-0.524,-0.5282,-0.5318,-0.5352,-0.5366,-0.5372,-0.5384,-0.5375,-0.5377,-0.5369,-0.5352,-0.5331,-0.5319,-0.5307,-0.5297,-0.5296,-0.5276,-0.5283,-0.5283,-0.5284,-0.5288,-0.5228,-0.5223,-0.5282,-0.5282,-0.5282,0,0,-0.5232,-0.529,-0.5283,-0.5338,-0.5351,-0.5366,-0.5376,-0.5375,-0.5363,-0.535,-0.5329,-0.5322,-0.5314,-0.5305,-0.5307,-0.5277,-0.5276,-0.5276,-0.5277,-0.5277,-0.5277,-0.5282,-0.5271,0,0,0,0,0,-0.5249,-0.5291,-0.5285,-0.5297,-0.5342,-0.5375,-0.5376,-0.5361,-0.5351,-0.5352,-0.5332,-0.5313,-0.5286,-0.5287,-0.5288,-0.5274,-0.5281,-0.5281,-0.5281,-0.5283,-0.5283,-0.5283,0,0,0,0,0,0,-0.5254,-0.5269,-0.5284,-0.5308,-0.5318,-0.5373,-0.534,-0.5336,-0.5348,-0.5342,-0.5318,-0.5313,-0.5286,-0.5286,-0.5287,-0.5273,-0.5271,-0.5281,-0.5281,-0.5281,-0.5283,-0.5283,-0.5283,0,0,0,0,0,-0.5258,-0.527,-0.535,-0.5306,-0.5315,-0.5311,-0.5338,-0.5334,-0.5333,-0.5316,-0.531,-0.5323,-0.5288,-0.5286,-0.5286,-0.5273,-0.527,-0.5271,-0.5281,-0.5281,-0.5281,-0.5283,0,0,0,0,0,0,-0.5261,-0.5249,-0.5351,-0.5353,-0.529,-0.5306,-0.5309,-0.5332,-0.5304,-0.5301,-0.5319,-0.5315,-0.5289,-0.5288,-0.5286,-0.5272,-0.527,-0.527,-0.527,-0.5281,-0.5281,-0.5281,0,0,0,0,0,0,-0.5243,-0.525,-0.5351,-0.5332,-0.5331,-0.5301,-0.5304,-0.5314,-0.5303,-0.5306,-0.5303,-0.5318,-0.5291,-0.5289,-0.5288,-0.5305,-0.5269,-0.527,-0.527,-0.527,-0.5281,-0.5281,0,0,0,0,0,0,-0.5245,-0.5252,-0.5331,-0.533,-0.5329,-0.534,-0.5308,-0.5349,-0.5306,-0.5306,-0.5302,-0.5299,-0.5293,-0.5291,-0.5289,-0.5307,-0.5305,-0.5269,-0.527,-0.527,-0.527,0,0,0,0,0,0,0,-0.5247,-0.5213,-0.5351,-0.5329,-0.5327,-0.537,-0.537,-0.5369,-0.5306,-0.5304,-0.5302,-0.53,-0.5267,-0.5268,-0.5268,-0.5308,0,0,-0.5269,-0.5269,0,0,0,0,0,0,0,0,-0.521,-0.5212,-0.5351,-0.5352,-0.5353,-0.537,-0.537,-0.5369,-0.5305,-0.5304,-0.5302,-0.5301,-0.5267,-0.5268,-0.5268,0,0,0,0,0,0,0,0,0,0,0,0,0,0,0,-0.5351,-0.5352,0,-0.537,-0.537,-0.5369,-0.5305,-0.5304,-0.5303,-0.5302,-0.5267,-0.5268,-0.5268,0,0,0,0,0,0,0,0,0,0,0,0,0,0,0,0,0,0,0,0,0,0,0,0,0,0,0,0,0,0,0,0,0,0,0,0,0,0,0,0,0,0,0,0,0,0,0,0,0,0,0,0,0,0,0,0,0,0,0,0,0,0,0,0,0,0,0,0,0]}],[{"header":{"parameterUnit":"kt","parameterCategory":2,"dx":1,"dy":1,"la1":30.253999710083008,"la2":30.299108505249023,"lo1":-89.0895004272461,"lo2":-89.04439544677734,"nx":28,"ny":28,"refTime":"2022-10-16T21:00:00:Z","depth":"0","parameterNumber":3,"parameterNumberName":"V-component_of_CURRENTS"},"data":[-0.1889,-0.1899,-0.1904,-0.2101,-0.2231,-0.245,-0.2553,-0.2544,-0.2389,-0.198,-0.1525,-0.1215,-0.0853,-0.0509,-0.0175,-0.0186,-0.0151,-0.0239,-0.0209,-0.0291,-0.0319,-0.0346,-0.031,-0.0079,-0.0078,0.0035,0.0036,0.0037,-0.1902,-0.1895,-0.1974,-0.2088,-0.2279,-0.2364,-0.2583,-0.2607,-0.2656,-0.2491,-0.2441,-0.1949,-0.1661,-0.1291,-0.0795,-0.0639,-0.0639,-0.0554,-0.0535,-0.0502,-0.0718,-0.0692,-0.0538,-0.0538,-0.0538,-0.0538,-0.0539,-0.0539,-0.1898,-0.1916,-0.1934,-0.2028,-0.2196,-0.2404,-0.2493,-0.2596,-0.2684,-0.2635,-0.2694,-0.2468,-0.2177,-0.1679,-0.1528,-0.1056,-0.1139,-0.088,-0.0869,-0.0913,-0.0839,-0.1098,-0.1042,-0.1043,-0.1044,-0.1045,-0.1045,0,-0.1882,-0.1886,-0.191,-0.2021,-0.2127,-0.2288,-0.2414,-0.2476,-0.2553,-0.2576,-0.2615,-0.2583,-0.2334,-0.2028,-0.168,-0.1499,-0.1192,-0.1238,-0.1111,-0.0919,-0.0926,-0.0848,-0.1131,-0.111,-0.1111,-0.1112,-0.1113,-0.1114,-0.1826,-0.1861,-0.1929,-0.1987,-0.2014,-0.2123,-0.2237,-0.2281,-0.2339,-0.2382,-0.242,-0.2329,-0.2274,-0.201,-0.1724,-0.1476,-0.1376,-0.1274,-0.1221,-0.1083,-0.1036,-0.1062,-0.1011,-0.1129,-0.1127,-0.1125,-0.1124,0,-0.1775,-0.1806,-0.1876,-0.1936,-0.1973,-0.204,-0.2148,-0.2223,-0.2212,-0.2268,-0.2261,-0.2164,-0.2059,-0.1859,-0.1701,-0.1567,-0.1371,-0.1395,-0.1322,-0.1288,-0.1087,-0.1063,-0.1045,-0.0981,-0.1305,-0.1304,-0.1303,0,-0.1723,-0.178,-0.1835,-0.1855,-0.195,-0.1976,-0.2057,-0.2059,-0.2075,-0.2126,-0.1997,-0.2007,-0.1812,-0.1733,-0.1597,-0.1476,-0.1504,-0.1363,-0.1337,-0.1274,-0.1265,-0.1103,-0.1067,-0.1388,-0.1388,-0.1389,-0.1389,0,-0.1666,-0.1742,-0.1806,-0.1816,-0.1872,-0.1902,-0.1939,-0.1936,-0.1967,-0.1911,-0.1907,-0.1809,-0.1775,-0.1684,-0.1541,-0.1521,-0.1459,-0.1414,-0.1339,-0.1335,-0.1225,-0.121,-0.1151,-0.1389,-0.1389,-0.1389,-0.1389,0,-0.1619,-0.1664,-0.1736,-0.1804,-0.182,-0.1843,-0.1874,-0.1896,-0.1862,-0.1823,-0.1759,-0.1679,-0.1627,-0.1561,-0.1477,-0.1482,-0.1421,-0.1366,-0.1363,-0.1287,-0.123,-0.1161,-0.1207,-0.1075,-0.1304,-0.1304,-0.1303,0,-0.154,-0.1628,-0.1644,-0.1703,-0.174,-0.1713,-0.1745,-0.1734,-0.1691,-0.167,-0.159,-0.1552,-0.147,-0.1442,-0.1422,-0.1343,-0.1343,-0.1339,-0.1252,-0.1248,-0.1243,-0.1309,-0.1237,-0.1206,-0.1299,-0.13,-0.13,0,-0.1493,-0.1559,-0.1567,-0.1603,-0.1605,-0.1609,-0.1625,-0.162,-0.1635,-0.156,-0.1556,-0.1472,-0.1413,-0.1369,-0.1303,-0.1293,-0.133,-0.1242,-0.1239,-0.1252,-0.1329,-0.1305,-0.1305,-0.1323,-0.1324,-0.1325,-0.1297,0,-0.1461,-0.1504,-0.1519,-0.1573,-0.1566,-0.1566,-0.155,-0.1535,-0.1501,-0.1464,-0.1422,-0.1331,-0.1261,-0.1239,-0.1186,-0.1199,-0.1169,-0.114,-0.1101,-0.1153,-0.1128,-0.1132,-0.1055,-0.1052,-0.105,-0.1048,0,0,-0.1397,-0.1465,-0.1467,-0.1499,-0.1497,-0.145,-0.1473,-0.1447,-0.1378,-0.1365,-0.1323,-0.1213,-0.1143,-0.1122,-0.1125,-0.1085,-0.107,-0.1069,-0.1115,-0.1124,-0.1131,-0.1112,-0.1117,-0.1044,-0.1043,-0.1042,-0.1042,0,-0.1399,-0.142,-0.1474,-0.1461,-0.1454,-0.143,-0.1431,-0.138,-0.1354,-0.1319,-0.1257,-0.1205,-0.1113,-0.1069,-0.1035,-0.1059,-0.1006,-0.1035,-0.1096,-0.1097,-0.1108,-0.1118,-0.1102,-0.1108,-0.1036,-0.1037,-0.1037,0,-0.1373,-0.1398,-0.142,-0.143,-0.1405,-0.1409,-0.1352,-0.133,-0.133,-0.1226,-0.1193,-0.1129,-0.1047,-0.1014,-0.0989,-0.0961,-0.095,-0.0933,-0.0942,-0.0936,-0.0933,-0.0945,-0.0956,-0.082,-0.082,-0.082,0,0,-0.1375,-0.1423,-0.1407,-0.1425,-0.1421,-0.1371,-0.135,-0.1318,-0.1264,-0.1235,-0.1165,-0.1096,-0.1049,-0.1012,-0.0953,-0.092,-0.0888,-0.0914,-0.0924,-0.0933,-0.0932,-0.0931,-0.0943,-0.082,-0.082,-0.082,0,0,-0.135,-0.1382,-0.1385,-0.1415,-0.1383,-0.1322,-0.1309,-0.1276,-0.1215,-0.1212,-0.1124,-0.1102,-0.106,-0.0996,-0.1005,-0.0942,-0.0891,-0.0887,-0.1006,-0.1017,-0.1026,-0.1044,-0.0936,0,0,0,0,0,-0.1363,-0.139,-0.1396,-0.1398,-0.1377,-0.1338,-0.1326,-0.1269,-0.125,-0.1233,-0.1172,-0.1121,-0.0981,-0.0987,-0.0968,-0.0985,-0.0819,-0.0819,-0.0819,-0.0962,-0.0975,-0.0986,0,0,0,0,0,0,-0.1363,-0.137,-0.1393,-0.1347,-0.134,-0.1337,-0.1295,-0.1279,-0.1249,-0.124,-0.1137,-0.1118,-0.1057,-0.0992,-0.0976,-0.0994,-0.0942,-0.0819,-0.0819,-0.0819,-0.0966,-0.0977,-0.0986,0,0,0,0,0,-0.1364,-0.1369,-0.1364,-0.1342,-0.1337,-0.1271,-0.1294,-0.128,-0.1245,-0.116,-0.114,-0.1204,-0.106,-0.104,-0.0982,-0.1003,-0.0952,-0.0946,-0.0819,-0.0819,-0.082,-0.0971,0,0,0,0,0,0,-0.1364,-0.1332,-0.136,-0.1354,-0.1335,-0.1267,-0.126,-0.1281,-0.1164,-0.1147,-0.1224,-0.1218,-0.1061,-0.1046,-0.1031,-0.1011,-0.0961,-0.0955,-0.0951,-0.0819,-0.0819,-0.082,0,0,0,0,0,0,-0.1329,-0.1328,-0.1356,-0.135,-0.1343,-0.1264,-0.1258,-0.1205,-0.1162,-0.1232,-0.1226,-0.1223,-0.1076,-0.105,-0.1038,-0.0957,-0.0967,-0.0962,-0.0958,-0.0955,-0.0819,-0.082,0,0,0,0,0,0,-0.1326,-0.1325,-0.1351,-0.1345,-0.1338,-0.1258,-0.1211,-0.1185,-0.1187,-0.1237,-0.1183,-0.1182,-0.1081,-0.1068,-0.1044,-0.0967,-0.0959,-0.0967,-0.0963,-0.0961,-0.0959,0,0,0,0,0,0,0,-0.1324,-0.1362,-0.1405,-0.1341,-0.1334,-0.1298,-0.1295,-0.1293,-0.1186,-0.1185,-0.1184,-0.1182,-0.0999,-0.0993,-0.0986,-0.0976,0,0,-0.0967,-0.0965,0,0,0,0,0,0,0,0,-0.136,-0.1362,-0.1405,-0.1404,-0.1403,-0.1297,-0.1295,-0.1293,-0.1186,-0.1185,-0.1184,-0.1183,-0.0997,-0.0992,-0.0987,0,0,0,0,0,0,0,0,0,0,0,0,0,0,0,-0.1405,-0.1404,0,-0.1297,-0.1296,-0.1294,-0.1186,-0.1185,-0.1184,-0.1183,-0.0996,-0.0992,-0.0987,0,0,0,0,0,0,0,0,0,0,0,0,0,0,0,0,0,0,0,0,0,0,0,0,0,0,0,0,0,0,0,0,0,0,0,0,0,0,0,0,0,0,0,0,0,0,0,0,0,0,0,0,0,0,0,0,0,0,0,0,0,0,0,0,0,0,0,0,0]}]],[[{"header":{"parameterUnit":"kt","parameterCategory":2,"dx":1,"dy":1,"la1":30.253999710083008,"la2":30.299108505249023,"lo1":-89.0895004272461,"lo2":-89.04439544677734,"nx":28,"ny":28,"refTime":"2022-10-16T21:00:00:Z","depth":"2","parameterNumber":2,"parameterNumberName":"U-component_of_CURRENTS"},"data":[-0.3366,-0.322,-0.3274,-0.3172,-0.3245,-0.3138,-0.316,-0.3186,-0.3213,-0.3158,-0.2958,-0.322,-0.316,-0.2411,-0.2312,-0.1884,-0.2127,-0.1755,-0.3147,-0.2855,-0.2923,-0.3083,-0.2955,0,0,0,0,0,-0.3637,-0.3657,-0.3693,-0.3742,-0.3727,-0.3935,-0.4094,-0.4007,-0.4064,-0.4182,-0.4286,-0.3728,-0.3458,-0.3286,-0.2841,-0.2911,-0.2781,-0.2647,-0.2335,-0.2416,-0.2488,-0.2345,-0.1693,-0.1689,-0.1685,-0.1682,0,0,-0.4079,-0.406,-0.4096,-0.4119,-0.4218,-0.4336,-0.4302,-0.4494,-0.462,-0.4676,-0.4963,-0.4756,-0.4662,-0.4215,-0.4016,-0.3754,-0.4158,-0.3747,-0.3762,-0.3791,-0.3723,-0.372,-0.3432,-0.344,-0.3446,-0.3452,-0.3457,0,-0.4345,-0.4421,-0.4425,-0.4504,-0.4528,-0.4633,-0.4732,-0.4783,-0.5004,-0.5096,-0.5233,-0.5269,-0.5218,-0.4829,-0.4701,-0.4549,-0.4336,-0.4186,-0.4958,-0.3746,-0.3734,-0.372,-0.3765,-0.3461,-0.3469,-0.3475,-0.3479,-0.3483,-0.4608,-0.4608,-0.4767,-0.4776,-0.4821,-0.4894,-0.4915,-0.5097,-0.5139,-0.532,-0.53,-0.5324,-0.5314,-0.5206,-0.5064,-0.4951,-0.5,-0.4353,-0.4274,-0.5008,-0.4996,-0.5003,-0.501,-0.3569,-0.3558,-0.3549,-0.3542,0,-0.4719,-0.4847,-0.487,-0.5008,-0.505,-0.5063,-0.519,-0.5187,-0.5321,-0.5333,-0.5332,-0.5366,-0.5324,-0.5249,-0.5134,-0.5076,-0.499,-0.4963,-0.4424,-0.4347,-0.5004,-0.5011,-0.4939,-0.494,-0.494,-0.494,-0.4941,0,-0.4944,-0.4934,-0.5111,-0.5092,-0.513,-0.5224,-0.5249,-0.5303,-0.5365,-0.5372,-0.5389,-0.5373,-0.5284,-0.5221,-0.5157,-0.5073,-0.5039,-0.5023,-0.5003,-0.4501,-0.4465,-0.5007,-0.5014,-0.4954,-0.4955,-0.4955,-0.4955,0,-0.5044,-0.5146,-0.5165,-0.5182,-0.5281,-0.5292,-0.5339,-0.5383,-0.5402,-0.54,-0.5406,-0.5332,-0.5305,-0.5217,-0.5167,-0.5166,-0.5058,-0.5043,-0.5021,-0.5024,-0.4509,-0.4471,-0.4956,-0.4956,-0.4956,-0.4956,-0.4956,0,-0.5186,-0.5238,-0.527,-0.5333,-0.5344,-0.5357,-0.5375,-0.5405,-0.5412,-0.5409,-0.5365,-0.5343,-0.5291,-0.5281,-0.5182,-0.5203,-0.5159,-0.5125,-0.5121,-0.5143,-0.5136,-0.4566,-0.4409,-0.5093,-0.5094,-0.5095,-0.5096,0,-0.5219,-0.5284,-0.5348,-0.5352,-0.5364,-0.5397,-0.5426,-0.5421,-0.5418,-0.5405,-0.5354,-0.5336,-0.5322,-0.5318,-0.5266,-0.5237,-0.5191,-0.5231,-0.5124,-0.5123,-0.5145,-0.5117,-0.4535,-0.4448,-0.5109,-0.5107,-0.5106,0,-0.5233,-0.5359,-0.5351,-0.5357,-0.5398,-0.54,-0.5421,-0.5417,-0.5423,-0.5389,-0.5368,-0.5345,-0.5328,-0.5316,-0.5301,-0.5258,-0.5215,-0.5245,-0.5242,-0.5226,-0.5104,-0.5133,-0.5127,-0.5164,-0.5162,-0.5161,-0.5116,0,-0.5292,-0.5327,-0.535,-0.5386,-0.5401,-0.5415,-0.5427,-0.5432,-0.5421,-0.5404,-0.5375,-0.5359,-0.5334,-0.5326,-0.533,-0.5284,-0.5281,-0.5257,-0.5242,-0.5227,-0.5214,-0.5206,-0.53,-0.53,-0.53,-0.53,0,0,-0.5246,-0.5307,-0.5351,-0.538,-0.5387,-0.5399,-0.541,-0.5412,-0.5416,-0.5401,-0.5397,-0.5361,-0.5356,-0.532,-0.5319,-0.5318,-0.529,-0.5305,-0.5245,-0.524,-0.5234,-0.5219,-0.5212,-0.53,-0.53,-0.53,-0.53,0,-0.5263,-0.5303,-0.5341,-0.536,-0.5387,-0.5392,-0.5404,-0.5419,-0.5404,-0.5406,-0.538,-0.5366,-0.5355,-0.5326,-0.5314,-0.532,-0.5285,-0.531,-0.5307,-0.5247,-0.5241,-0.5236,-0.5221,-0.5214,-0.53,-0.53,-0.53,0,-0.5241,-0.528,-0.5306,-0.5359,-0.5367,-0.5385,-0.5381,-0.5402,-0.5398,-0.5382,-0.5365,-0.5354,-0.5336,-0.5318,-0.5313,-0.5306,-0.5276,-0.5299,-0.5299,-0.5305,-0.5243,-0.5237,-0.5232,-0.5298,-0.5298,-0.5298,0,0,-0.5238,-0.5285,-0.5323,-0.5361,-0.5375,-0.5382,-0.5393,-0.5385,-0.5388,-0.538,-0.5364,-0.5344,-0.5332,-0.5321,-0.5312,-0.5311,-0.5291,-0.5298,-0.5298,-0.5299,-0.5305,-0.5244,-0.5238,-0.5298,-0.5298,-0.5298,0,0,-0.5229,-0.5293,-0.5288,-0.5346,-0.536,-0.5377,-0.5387,-0.5386,-0.5375,-0.5361,-0.5341,-0.5335,-0.5327,-0.5319,-0.5321,-0.5292,-0.5291,-0.5292,-0.529,-0.529,-0.5291,-0.5297,-0.5286,0,0,0,0,0,-0.5249,-0.5294,-0.5289,-0.5302,-0.5352,-0.5385,-0.5387,-0.5372,-0.5361,-0.5363,-0.5343,-0.5325,-0.5301,-0.5302,-0.5303,-0.5288,-0.5297,-0.5297,-0.5297,-0.5297,-0.5297,-0.5297,0,0,0,0,0,0,-0.5255,-0.5271,-0.5288,-0.5313,-0.5325,-0.5383,-0.5351,-0.5346,-0.5359,-0.5353,-0.533,-0.5325,-0.5299,-0.53,-0.5301,-0.5287,-0.5285,-0.5297,-0.5297,-0.5298,-0.5297,-0.5297,-0.5297,0,0,0,0,0,-0.5259,-0.5272,-0.536,-0.5311,-0.5321,-0.5319,-0.5348,-0.5344,-0.5344,-0.5328,-0.5322,-0.5334,-0.5301,-0.5299,-0.5301,-0.5286,-0.5284,-0.5285,-0.5297,-0.5297,-0.5298,-0.5297,0,0,0,0,0,0,-0.5262,-0.525,-0.5361,-0.5362,-0.5295,-0.5313,-0.5316,-0.5343,-0.5316,-0.5313,-0.5331,-0.5326,-0.5302,-0.5301,-0.53,-0.5286,-0.5284,-0.5284,-0.5285,-0.5297,-0.5297,-0.5298,0,0,0,0,0,0,-0.5244,-0.5252,-0.5361,-0.5342,-0.5341,-0.5308,-0.5311,-0.5323,-0.5315,-0.5317,-0.5314,-0.5329,-0.5303,-0.5302,-0.5301,-0.5319,-0.5283,-0.5284,-0.5284,-0.5284,-0.5297,-0.5298,0,0,0,0,0,0,-0.5247,-0.5254,-0.5341,-0.534,-0.5339,-0.5351,-0.5315,-0.5361,-0.5318,-0.5317,-0.5313,-0.5311,-0.5306,-0.5304,-0.5302,-0.5321,-0.532,-0.5283,-0.5284,-0.5284,-0.5284,0,0,0,0,0,0,0,-0.5249,-0.5211,-0.536,-0.5338,-0.5337,-0.5381,-0.538,-0.538,-0.5317,-0.5315,-0.5313,-0.5312,-0.5281,-0.5281,-0.5282,-0.5323,0,0,-0.5283,-0.5283,0,0,0,0,0,0,0,0,-0.5208,-0.521,-0.536,-0.5361,-0.5362,-0.5381,-0.538,-0.538,-0.5317,-0.5315,-0.5314,-0.5312,-0.5281,-0.5281,-0.5282,0,0,0,0,0,0,0,0,0,0,0,0,0,0,0,-0.5361,-0.5361,0,-0.5381,-0.538,-0.538,-0.5317,-0.5315,-0.5314,-0.5313,-0.5281,-0.5281,-0.5282,0,0,0,0,0,0,0,0,0,0,0,0,0,0,0,0,0,0,0,0,0,0,0,0,0,0,0,0,0,0,0,0,0,0,0,0,0,0,0,0,0,0,0,0,0,0,0,0,0,0,0,0,0,0,0,0,0,0,0,0,0,0,0,0,0,0,0,0,0]}],[{"header":{"parameterUnit":"kt","parameterCategory":2,"dx":1,"dy":1,"la1":30.253999710083008,"la2":30.299108505249023,"lo1":-89.0895004272461,"lo2":-89.04439544677734,"nx":28,"ny":28,"refTime":"2022-10-16T21:00:00:Z","depth":"2","parameterNumber":3,"parameterNumberName":"V-component_of_CURRENTS"},"data":[-0.1731,-0.173,-0.1731,-0.1888,-0.1998,-0.2093,-0.2156,-0.1998,-0.1709,-0.126,-0.0624,-0.0058,0.0335,0.0819,0.0847,0.1039,0.068,0.0956,0.0334,0.0422,0.0365,0.0309,0.0418,0,0,0,0,0,-0.1741,-0.1746,-0.1792,-0.1874,-0.196,-0.2016,-0.2151,-0.2087,-0.206,-0.1693,-0.1602,-0.0871,-0.0191,0.0102,0.0556,0.0567,0.0516,0.049,0.0604,0.055,0.0498,0.0595,0.1051,0.105,0.1049,0.1048,0,0,-0.1742,-0.1758,-0.1763,-0.1814,-0.188,-0.2007,-0.2035,-0.2043,-0.2073,-0.2008,-0.2118,-0.1676,-0.1314,-0.0428,-0.0358,-0.0208,-0.0321,-0.0093,-0.0111,-0.0139,-0.007,-0.0009,0.0208,0.0203,0.0199,0.0195,0.0191,0,-0.1723,-0.1728,-0.1732,-0.1802,-0.1816,-0.1878,-0.1954,-0.1953,-0.2029,-0.2045,-0.2175,-0.2103,-0.1839,-0.1291,-0.0915,-0.0768,-0.0658,-0.0516,-0.1128,-0.024,-0.0175,-0.0153,-0.0183,-0.0004,-0.0011,-0.0016,-0.0019,-0.0022,-0.1672,-0.1703,-0.1732,-0.1762,-0.1775,-0.1821,-0.1838,-0.1833,-0.1856,-0.1959,-0.2008,-0.1982,-0.191,-0.1676,-0.1368,-0.1097,-0.1245,-0.0668,-0.0566,-0.1075,-0.1053,-0.1055,-0.1055,-0.0094,-0.0084,-0.0077,-0.0071,0,-0.1623,-0.1651,-0.1693,-0.1721,-0.1738,-0.1786,-0.1792,-0.1773,-0.1811,-0.1832,-0.1848,-0.18,-0.1782,-0.1609,-0.1506,-0.1363,-0.1237,-0.1191,-0.0786,-0.0717,-0.1068,-0.1067,-0.1056,-0.1053,-0.1051,-0.1049,-0.1048,0,-0.1577,-0.1611,-0.1656,-0.1662,-0.1716,-0.1729,-0.1733,-0.1748,-0.1709,-0.1729,-0.1632,-0.1643,-0.1534,-0.1477,-0.1367,-0.1278,-0.1329,-0.1167,-0.1144,-0.08,-0.0764,-0.1158,-0.1148,-0.1241,-0.1241,-0.1242,-0.1242,0,-0.1529,-0.1581,-0.1628,-0.1628,-0.165,-0.1665,-0.1686,-0.1646,-0.1632,-0.1572,-0.155,-0.147,-0.1489,-0.1417,-0.1346,-0.1329,-0.1294,-0.1259,-0.1155,-0.1149,-0.0761,-0.072,-0.1242,-0.1242,-0.1242,-0.1242,-0.1242,0,-0.1489,-0.1527,-0.1586,-0.1606,-0.1613,-0.1624,-0.1605,-0.1615,-0.1545,-0.1501,-0.1436,-0.1359,-0.1344,-0.1312,-0.1283,-0.1289,-0.125,-0.1212,-0.121,-0.1095,-0.1048,-0.0677,-0.0637,-0.1159,-0.1159,-0.1158,-0.1158,0,-0.1412,-0.1494,-0.1505,-0.1535,-0.1562,-0.1528,-0.1548,-0.152,-0.1455,-0.1398,-0.134,-0.1295,-0.1263,-0.1245,-0.1238,-0.1185,-0.1188,-0.1184,-0.1112,-0.1108,-0.1065,-0.1118,-0.0718,-0.0652,-0.1154,-0.1155,-0.1155,0,-0.1369,-0.1434,-0.1441,-0.1459,-0.1461,-0.1448,-0.1464,-0.1438,-0.1423,-0.1369,-0.1326,-0.1273,-0.1221,-0.1178,-0.1127,-0.1127,-0.1175,-0.1095,-0.1092,-0.1101,-0.1186,-0.1119,-0.1115,-0.1182,-0.1183,-0.1184,-0.1152,0,-0.1334,-0.1377,-0.1393,-0.1443,-0.1429,-0.1426,-0.1404,-0.1388,-0.1353,-0.1305,-0.1253,-0.1178,-0.1102,-0.1086,-0.1042,-0.1054,-0.1025,-0.1005,-0.0969,-0.1019,-0.0993,-0.0996,-0.0923,-0.0921,-0.0919,-0.0917,0,0,-0.1269,-0.134,-0.1348,-0.1379,-0.1369,-0.1327,-0.1341,-0.1315,-0.1245,-0.1219,-0.1191,-0.1072,-0.1012,-0.0976,-0.0984,-0.0949,-0.0937,-0.0932,-0.0983,-0.099,-0.0997,-0.0977,-0.0982,-0.0913,-0.0913,-0.0912,-0.0911,0,-0.1272,-0.1298,-0.1355,-0.134,-0.1335,-0.1308,-0.1309,-0.1258,-0.1228,-0.119,-0.1126,-0.1076,-0.0984,-0.0937,-0.0903,-0.0924,-0.0877,-0.0904,-0.0957,-0.0965,-0.0976,-0.0985,-0.0967,-0.0974,-0.0906,-0.0906,-0.0907,0,-0.1243,-0.1272,-0.1297,-0.131,-0.1286,-0.1286,-0.1231,-0.1211,-0.1204,-0.1104,-0.1063,-0.1002,-0.0919,-0.0885,-0.086,-0.0834,-0.0824,-0.0809,-0.0817,-0.0805,-0.081,-0.0821,-0.0832,-0.0702,-0.0702,-0.0702,0,0,-0.1244,-0.1297,-0.1282,-0.1306,-0.1302,-0.1251,-0.1229,-0.1197,-0.1141,-0.111,-0.104,-0.0971,-0.0921,-0.0885,-0.0826,-0.0795,-0.0764,-0.079,-0.08,-0.0808,-0.0801,-0.0808,-0.0819,-0.0701,-0.0701,-0.0701,0,0,-0.1217,-0.1254,-0.1259,-0.1294,-0.1262,-0.1199,-0.1187,-0.1153,-0.1089,-0.1086,-0.0997,-0.0974,-0.0931,-0.087,-0.0879,-0.0818,-0.0769,-0.0765,-0.0878,-0.0888,-0.0898,-0.0907,-0.0812,0,0,0,0,0,-0.1231,-0.1263,-0.1269,-0.1273,-0.1256,-0.1217,-0.1205,-0.1145,-0.1125,-0.1106,-0.1042,-0.0994,-0.0853,-0.0859,-0.0841,-0.0859,-0.07,-0.0701,-0.0701,-0.0837,-0.0849,-0.0859,0,0,0,0,0,0,-0.1232,-0.124,-0.1267,-0.122,-0.1215,-0.1216,-0.1171,-0.1154,-0.1124,-0.1113,-0.101,-0.0992,-0.093,-0.0864,-0.0848,-0.0867,-0.0817,-0.0701,-0.0701,-0.0701,-0.0841,-0.0851,-0.0859,0,0,0,0,0,-0.1233,-0.1239,-0.1243,-0.1216,-0.1212,-0.1143,-0.117,-0.1155,-0.1118,-0.1034,-0.1014,-0.1075,-0.0932,-0.0914,-0.0854,-0.0876,-0.0827,-0.0822,-0.0701,-0.0701,-0.0701,-0.0846,0,0,0,0,0,0,-0.1234,-0.12,-0.1239,-0.1233,-0.1207,-0.1138,-0.1131,-0.1156,-0.1038,-0.1021,-0.1096,-0.109,-0.0934,-0.0919,-0.0905,-0.0883,-0.0835,-0.083,-0.0827,-0.0701,-0.0701,-0.0701,0,0,0,0,0,0,-0.1196,-0.1196,-0.1235,-0.1228,-0.122,-0.1135,-0.1129,-0.1079,-0.1036,-0.1103,-0.1096,-0.1095,-0.095,-0.0924,-0.0912,-0.0836,-0.0842,-0.0836,-0.0833,-0.083,-0.0701,-0.0701,0,0,0,0,0,0,-0.1193,-0.1193,-0.1228,-0.1222,-0.1215,-0.1133,-0.1085,-0.1064,-0.1056,-0.1108,-0.1052,-0.1051,-0.0956,-0.0943,-0.0917,-0.0847,-0.0839,-0.0841,-0.0838,-0.0835,-0.0834,0,0,0,0,0,0,0,-0.1191,-0.1227,-0.1285,-0.1218,-0.1211,-0.1176,-0.1174,-0.1171,-0.1056,-0.1054,-0.1053,-0.1051,-0.0871,-0.0866,-0.086,-0.0855,0,0,-0.0842,-0.0839,0,0,0,0,0,0,0,0,-0.1224,-0.1227,-0.1285,-0.1284,-0.1284,-0.1176,-0.1174,-0.1171,-0.1056,-0.1054,-0.1053,-0.1052,-0.087,-0.0865,-0.0861,0,0,0,0,0,0,0,0,0,0,0,0,0,0,0,-0.1285,-0.1285,0,-0.1175,-0.1174,-0.1172,-0.1056,-0.1054,-0.1053,-0.1052,-0.0869,-0.0865,-0.0861,0,0,0,0,0,0,0,0,0,0,0,0,0,0,0,0,0,0,0,0,0,0,0,0,0,0,0,0,0,0,0,0,0,0,0,0,0,0,0,0,0,0,0,0,0,0,0,0,0,0,0,0,0,0,0,0,0,0,0,0,0,0,0,0,0,0,0,0,0]}]],[[{"header":{"parameterUnit":"kt","parameterCategory":2,"dx":1,"dy":1,"la1":30.253999710083008,"la2":30.299108505249023,"lo1":-89.0895004272461,"lo2":-89.04439544677734,"nx":28,"ny":28,"refTime":"2022-10-16T21:00:00:Z","depth":"4","parameterNumber":2,"parameterNumberName":"U-component_of_CURRENTS"},"data":[-0.1972,-0.2033,-0.2012,-0.198,-0.1959,-0.1944,-0.1902,-0.1846,-0.1666,-0.1568,-0.1546,-0.1398,-0.1414,-0.1519,-0.1381,-0.1388,-0.1333,-0.1501,-0.1493,-0.1513,-0.1533,-0.1552,-0.1508,0,0,0,0,0,-0.1978,-0.1965,-0.2033,-0.2017,-0.2067,-0.2035,-0.1981,-0.192,-0.18,-0.1636,-0.1543,-0.1556,-0.1471,-0.1431,-0.142,-0.1553,-0.1649,-0.1519,-0.153,-0.1525,-0.1548,-0.1498,0,0,0,0,0,0,-0.1965,-0.1986,-0.1995,-0.1999,-0.2039,-0.1988,-0.1979,-0.1827,-0.173,-0.16,-0.1543,-0.1557,-0.1566,-0.1491,-0.1561,-0.1582,-0.1531,-0.1389,-0.1418,-0.144,-0.1376,-0.148,-0.1078,0,0,0,0,0,-0.1885,-0.1933,-0.1888,-0.1928,-0.1968,-0.19,-0.1942,-0.1854,-0.1863,-0.1823,-0.1638,-0.154,-0.157,-0.1588,-0.1663,-0.1702,-0.1796,-0.1747,-0.1758,-0.1727,-0.1836,-0.1786,-0.181,-0.1635,-0.1638,-0.164,-0.1641,0,-0.1866,-0.1828,-0.1791,-0.1803,-0.1801,-0.1833,-0.1887,-0.1906,-0.1916,-0.1867,-0.1828,-0.1806,-0.1843,-0.1711,-0.1841,-0.1889,-0.1891,-0.1808,-0.1775,-0.1875,-0.1814,-0.1834,-0.1852,-0.1659,-0.1658,-0.1656,-0.1655,0,-0.1867,-0.1757,-0.1707,-0.1649,-0.1641,-0.1729,-0.1755,-0.1839,-0.1918,-0.1934,-0.1917,-0.1906,-0.1952,-0.2013,-0.2048,-0.1983,-0.1956,-0.193,-0.2287,-0.2223,-0.1879,-0.189,-0.1689,-0.1683,-0.1677,-0.1672,-0.1668,0,-0.1803,-0.1747,-0.161,-0.1561,-0.1606,-0.1599,-0.1743,-0.19,-0.1955,-0.2004,-0.2071,-0.2006,-0.2075,-0.2069,-0.2192,-0.2141,-0.2154,-0.2094,-0.201,-0.2239,-0.2249,-0.2223,-0.2232,-0.2142,-0.2143,-0.2143,-0.2143,0,-0.1768,-0.1636,-0.1584,-0.1521,-0.1508,-0.1559,-0.1712,-0.1892,-0.1921,-0.2058,-0.2036,-0.2105,-0.2133,-0.2115,-0.2302,-0.2301,-0.2274,-0.2205,-0.2073,-0.2067,-0.2228,-0.2237,-0.2143,-0.2143,-0.2143,-0.2143,-0.2144,0,-0.1684,-0.1576,-0.1535,-0.1431,-0.1468,-0.1567,-0.173,-0.1836,-0.1983,-0.2038,-0.2102,-0.215,-0.2263,-0.2318,-0.2373,-0.2388,-0.2438,-0.245,-0.2441,-0.2294,-0.2208,-0.2286,-0.2368,-0.237,-0.2372,-0.2373,-0.2374,0,-0.1662,-0.1566,-0.1469,-0.1488,-0.1496,-0.1573,-0.1679,-0.1797,-0.1954,-0.2046,-0.21,-0.2221,-0.2398,-0.2483,-0.2489,-0.2587,-0.2563,-0.2624,-0.2394,-0.2393,-0.2136,-0.2156,-0.2425,-0.2395,-0.2393,-0.2391,-0.2389,0,-0.1604,-0.1399,-0.1401,-0.1348,-0.1462,-0.1534,-0.1658,-0.1824,-0.1919,-0.203,-0.206,-0.2334,-0.2422,-0.2503,-0.2617,-0.2595,-0.26,-0.2627,-0.2619,-0.251,-0.2364,-0.2205,-0.2179,-0.2439,-0.2437,-0.2434,-0.2404,0,-0.1424,-0.1347,-0.1377,-0.1389,-0.1455,-0.155,-0.1676,-0.1791,-0.1928,-0.2012,-0.2129,-0.2274,-0.2412,-0.2496,-0.2635,-0.2679,-0.2673,-0.2585,-0.2449,-0.2544,-0.2541,-0.253,-0.2664,-0.2664,-0.2664,-0.2664,0,0,-0.1459,-0.133,-0.1313,-0.1315,-0.1354,-0.1566,-0.1636,-0.174,-0.1923,-0.1961,-0.2003,-0.2247,-0.2359,-0.2442,-0.2593,-0.2631,-0.2574,-0.2576,-0.2573,-0.2563,-0.2554,-0.2549,-0.2538,-0.2664,-0.2664,-0.2664,-0.2664,0,-0.1368,-0.1304,-0.1263,-0.1289,-0.1414,-0.1544,-0.1593,-0.1769,-0.1821,-0.1963,-0.2041,-0.2179,-0.2312,-0.2377,-0.2424,-0.2616,-0.248,-0.267,-0.2717,-0.2576,-0.2566,-0.2557,-0.2551,-0.2541,-0.2664,-0.2664,-0.2664,0,-0.1336,-0.1304,-0.1242,-0.1285,-0.1401,-0.1507,-0.1556,-0.1695,-0.1756,-0.1813,-0.1953,-0.2051,-0.2141,-0.2255,-0.2314,-0.2272,-0.2377,-0.2405,-0.2412,-0.243,-0.228,-0.2274,-0.2269,-0.2294,-0.2292,-0.229,0,0,-0.1327,-0.121,-0.1301,-0.1295,-0.1366,-0.1509,-0.1589,-0.1651,-0.1775,-0.1831,-0.1894,-0.1997,-0.2085,-0.2119,-0.22,-0.2296,-0.224,-0.2348,-0.2366,-0.2379,-0.2403,-0.226,-0.2259,-0.2281,-0.228,-0.228,0,0,-0.1364,-0.1305,-0.13,-0.1281,-0.1391,-0.1544,-0.1629,-0.1694,-0.1816,-0.184,-0.1861,-0.1872,-0.1995,-0.2028,-0.1914,-0.2131,-0.2081,-0.2104,-0.2032,-0.2054,-0.2072,-0.2067,-0.18,0,0,0,0,0,-0.132,-0.1293,-0.1286,-0.1295,-0.1386,-0.1526,-0.1557,-0.1654,-0.1703,-0.1747,-0.1846,-0.1772,-0.2001,-0.1897,-0.1904,-0.1929,-0.2164,-0.2185,-0.2204,-0.2141,-0.2165,-0.2185,0,0,0,0,0,0,-0.1324,-0.1324,-0.1292,-0.1418,-0.1445,-0.1524,-0.1545,-0.1573,-0.1697,-0.1705,-0.177,-0.1772,-0.1757,-0.1888,-0.1896,-0.192,-0.1797,-0.2172,-0.219,-0.2205,-0.2149,-0.2169,-0.2186,0,0,0,0,0,-0.1328,-0.1329,-0.1409,-0.1425,-0.1448,-0.1587,-0.1542,-0.1566,-0.1673,-0.1693,-0.1703,-0.1746,-0.1758,-0.1765,-0.1892,-0.1917,-0.1791,-0.1794,-0.2183,-0.2197,-0.221,-0.2159,0,0,0,0,0,0,-0.1331,-0.1379,-0.1421,-0.1439,-0.1406,-0.1588,-0.1601,-0.156,-0.1653,-0.1669,-0.1659,-0.1662,-0.1758,-0.1764,-0.177,-0.1919,-0.1786,-0.179,-0.1791,-0.2194,-0.2205,-0.2214,0,0,0,0,0,0,-0.1382,-0.1391,-0.143,-0.1398,-0.1414,-0.1588,-0.1599,-0.1633,-0.1648,-0.1611,-0.162,-0.1659,-0.1706,-0.1764,-0.1768,-0.1825,-0.1783,-0.1786,-0.1788,-0.1789,-0.2203,-0.2211,0,0,0,0,0,0,-0.1392,-0.14,-0.1394,-0.1406,-0.1419,-0.1628,-0.162,-0.1675,-0.1716,-0.1601,-0.1713,-0.1712,-0.1702,-0.1711,-0.1767,-0.1822,-0.1824,-0.1783,-0.1785,-0.1786,-0.1787,0,0,0,0,0,0,0,-0.1399,-0.1272,-0.1317,-0.1412,-0.1424,-0.1609,-0.1614,-0.1618,-0.1716,-0.1715,-0.1713,-0.1712,-0.1766,-0.1769,-0.1772,-0.1819,0,0,-0.1783,-0.1784,0,0,0,0,0,0,0,0,-0.1276,-0.1273,-0.1318,-0.1322,-0.1326,-0.161,-0.1614,-0.1617,-0.1716,-0.1715,-0.1714,-0.1713,-0.1767,-0.1769,-0.1772,0,0,0,0,0,0,0,0,0,0,0,0,0,0,0,-0.1318,-0.1322,0,-0.161,-0.1613,-0.1616,-0.1716,-0.1715,-0.1714,-0.1713,-0.1767,-0.1769,-0.1772,0,0,0,0,0,0,0,0,0,0,0,0,0,0,0,0,0,0,0,0,0,0,0,0,0,0,0,0,0,0,0,0,0,0,0,0,0,0,0,0,0,0,0,0,0,0,0,0,0,0,0,0,0,0,0,0,0,0,0,0,0,0,0,0,0,0,0,0,0]}],[{"header":{"parameterUnit":"kt","parameterCategory":2,"dx":1,"dy":1,"la1":30.253999710083008,"la2":30.299108505249023,"lo1":-89.0895004272461,"lo2":-89.04439544677734,"nx":28,"ny":28,"refTime":"2022-10-16T21:00:00:Z","depth":"4","parameterNumber":3,"parameterNumberName":"V-component_of_CURRENTS"},"data":[-0.0632,-0.0634,-0.0578,-0.0453,-0.0415,-0.0241,-0.005,0.0141,0.0312,0.0546,0.0665,0.0819,0.0993,0.1052,0.1206,0.1229,0.1062,0.1424,0.1423,0.1145,0.113,0.1117,0.088,0,0,0,0,0,-0.0545,-0.0558,-0.0511,-0.0403,-0.0254,-0.0212,0.008,0.0192,0.0416,0.0661,0.0724,0.0967,0.1169,0.1209,0.1295,0.1239,0.1205,0.1324,0.1079,0.1136,0.112,0.0894,0,0,0,0,0,0,-0.0435,-0.0429,-0.0393,-0.0336,-0.0222,-0.0033,0.005,0.0236,0.0359,0.0622,0.076,0.0959,0.1061,0.1145,0.1264,0.1323,0.127,0.1186,0.1168,0.1152,0.0987,0.1046,0.1376,0,0,0,0,0,-0.0361,-0.0312,-0.0309,-0.0235,-0.0179,-0.0075,-0.0003,0.0111,0.0227,0.0291,0.0592,0.0727,0.0965,0.1008,0.1149,0.1219,0.0955,0.1102,0.109,0.0823,0.0865,0.0824,0.0792,0.1059,0.1057,0.1055,0.1054,0,-0.0279,-0.0272,-0.0216,-0.019,-0.0195,-0.0162,-0.0142,-0.0115,-0.0032,0.0184,0.0282,0.0502,0.0573,0.0884,0.0847,0.0999,0.0982,0.1062,0.0776,0.0836,0.0806,0.0776,0.0748,0.1041,0.1043,0.1044,0.1045,0,-0.0244,-0.0221,-0.0239,-0.025,-0.0241,-0.0249,-0.023,-0.0196,-0.0157,0.0007,0.0059,0.0125,0.0325,0.0364,0.0547,0.0532,0.0681,0.0784,0.0674,0.0647,0.0738,0.0715,0.102,0.1025,0.1029,0.1032,0.1035,0,-0.0197,-0.0238,-0.0209,-0.0236,-0.0248,-0.0342,-0.0321,-0.0363,-0.0316,-0.0203,-0.0231,-0.0091,-0.0095,0.0061,0.0151,0.0377,0.035,0.0461,0.0461,0.0207,0.0189,0.0249,0.0233,0.0354,0.0351,0.0348,0.0346,0,-0.0153,-0.0233,-0.0249,-0.0292,-0.0372,-0.0407,-0.044,-0.0469,-0.045,-0.0385,-0.0303,-0.0278,-0.0155,-0.0097,0.0087,0.0001,0.0311,0.0165,0.0357,0.0366,0.0225,0.0214,0.0342,0.0342,0.0341,0.034,0.0339,0,-0.0174,-0.0194,-0.0247,-0.034,-0.0358,-0.0405,-0.0449,-0.0499,-0.048,-0.0466,-0.0427,-0.0379,-0.0274,-0.0285,-0.0113,-0.0206,-0.0067,0.0005,0.0015,0.0107,0.0028,0.0106,0.0162,0.0158,0.0155,0.0152,0.0149,0,-0.0129,-0.0183,-0.0244,-0.032,-0.0345,-0.04,-0.0469,-0.05,-0.0493,-0.0471,-0.0455,-0.0416,-0.0415,-0.0356,-0.0332,-0.0227,-0.0131,-0.0271,-0.0074,-0.0063,0.0001,0.0064,-0.0293,0.0103,0.0109,0.0113,0.0116,0,-0.0107,-0.0164,-0.0183,-0.0213,-0.0299,-0.0313,-0.039,-0.0416,-0.0399,-0.0454,-0.0438,-0.0458,-0.0387,-0.0387,-0.0366,-0.0327,-0.0187,-0.0297,-0.0296,-0.0105,-0.0041,0.0008,0.0041,-0.0305,-0.0303,-0.0301,0.0084,0,-0.0096,-0.0155,-0.0164,-0.0224,-0.0263,-0.028,-0.0309,-0.0338,-0.0342,-0.0348,-0.0373,-0.037,-0.0367,-0.0407,-0.0361,-0.0339,-0.0277,-0.0371,-0.0335,-0.0352,-0.0179,-0.0154,-0.0435,-0.0434,-0.0433,-0.0433,0,0,-0.007,-0.0115,-0.0121,-0.0168,-0.0193,-0.0155,-0.0194,-0.0219,-0.0244,-0.0249,-0.0251,-0.0298,-0.0303,-0.0329,-0.0321,-0.0375,-0.0305,-0.0345,-0.0368,-0.0362,-0.0355,-0.0191,-0.0168,-0.0432,-0.0432,-0.0431,-0.0431,0,-0.0056,-0.0097,-0.0117,-0.0149,-0.0147,-0.015,-0.0145,-0.0156,-0.0173,-0.0226,-0.0205,-0.0199,-0.0294,-0.029,-0.0305,-0.0364,-0.0307,-0.0416,-0.0373,-0.0366,-0.036,-0.0354,-0.0192,-0.0172,-0.043,-0.043,-0.043,0,-0.0041,-0.0061,-0.0071,-0.0115,-0.011,-0.0138,-0.0098,-0.0095,-0.0133,-0.0104,-0.0166,-0.0166,-0.0189,-0.0251,-0.0273,-0.0266,-0.0278,-0.0346,-0.0351,-0.0268,-0.0254,-0.0249,-0.0245,-0.0291,-0.029,-0.029,0,0,-0.0037,-0.0068,-0.0074,-0.0109,-0.0105,-0.0099,-0.01,-0.0094,-0.0095,-0.0102,-0.0125,-0.0146,-0.0173,-0.0194,-0.0226,-0.0286,-0.0206,-0.0329,-0.0336,-0.0341,-0.0263,-0.025,-0.0247,-0.0288,-0.0288,-0.0288,0,0,-0.0016,-0.0029,-0.0036,-0.0082,-0.0087,-0.0085,-0.0087,-0.008,-0.0102,-0.0086,-0.0094,-0.0098,-0.0138,-0.0155,-0.0127,-0.0239,-0.0212,-0.0219,-0.0231,-0.024,-0.0246,-0.014,-0.0131,0,0,0,0,0,0.0014,-0.0026,-0.0033,-0.0038,-0.008,-0.0091,-0.0096,-0.0083,-0.0054,-0.0079,-0.0075,-0.0079,-0.0148,-0.0123,-0.0134,-0.0184,-0.0264,-0.0268,-0.0272,-0.0302,-0.031,-0.0317,0,0,0,0,0,0,0.0012,0.0002,-0.003,-0.0031,-0.0037,-0.0092,-0.0062,-0.0062,-0.0052,-0.005,-0.0079,-0.0081,-0.0096,-0.0119,-0.0128,-0.0176,-0.0128,-0.0265,-0.0269,-0.0272,-0.0304,-0.0312,-0.0318,0,0,0,0,0,0.0011,0.0004,-0.0073,-0.003,-0.0036,-0.002,-0.0061,-0.0061,-0.0069,-0.0075,-0.0077,-0.0049,-0.0097,-0.0104,-0.0125,-0.0172,-0.0122,-0.0125,-0.0268,-0.0271,-0.0273,-0.0308,0,0,0,0,0,0,0.0011,-0.0021,-0.0073,-0.0073,-0.0005,-0.0017,-0.0024,-0.006,-0.0097,-0.0095,-0.0046,-0.0044,-0.0099,-0.0104,-0.0109,-0.0171,-0.0117,-0.012,-0.0122,-0.027,-0.0272,-0.0274,0,0,0,0,0,0,-0.0014,-0.0022,-0.0074,-0.0043,-0.004,-0.0015,-0.002,-0.0062,-0.0098,-0.007,-0.0066,-0.0044,-0.0075,-0.0104,-0.0108,-0.0175,-0.0113,-0.0116,-0.0118,-0.012,-0.0272,-0.0273,0,0,0,0,0,0,-0.0016,-0.0023,-0.0045,-0.0042,-0.004,-0.0047,-0.0052,-0.0098,-0.0065,-0.0071,-0.006,-0.0057,-0.0074,-0.008,-0.0108,-0.0173,-0.0174,-0.0113,-0.0115,-0.0117,-0.0118,0,0,0,0,0,0,0,-0.0018,0.0015,-0.0055,-0.0042,-0.0039,-0.0064,-0.0066,-0.0068,-0.0065,-0.0062,-0.006,-0.0058,-0.0094,-0.0098,-0.0102,-0.0171,0,0,-0.0113,-0.0114,0,0,0,0,0,0,0,0,0.0019,0.0016,-0.0055,-0.0054,-0.0052,-0.0064,-0.0066,-0.0067,-0.0064,-0.0063,-0.0061,-0.0059,-0.0095,-0.0098,-0.0101,0,0,0,0,0,0,0,0,0,0,0,0,0,0,0,-0.0055,-0.0054,0,-0.0064,-0.0065,-0.0067,-0.0064,-0.0063,-0.0061,-0.006,-0.0096,-0.0099,-0.0101,0,0,0,0,0,0,0,0,0,0,0,0,0,0,0,0,0,0,0,0,0,0,0,0,0,0,0,0,0,0,0,0,0,0,0,0,0,0,0,0,0,0,0,0,0,0,0,0,0,0,0,0,0,0,0,0,0,0,0,0,0,0,0,0,0,0,0,0,0]}]]]